Time,TemperatureF,DewpointF,PressureIn,WindDirection,WindDirectionDegrees,WindSpeedMPH,WindSpeedGustMPH,Humidity,HourlyPrecipIn,Conditions,Clouds,dailyrainin,SoftwareType,DateUTC
2013-03-08 00:02:00,22.0,20.5,30.25,SE,125,5.0,10.0,94,0.00,,,0.01,Wunderground v.1.15,2013-03-08 06:02:00,
2013-03-08 00:06:00,21.9,20.4,30.25,SE,138,5.0,10.0,94,0.00,,,0.00,Wunderground v.1.15,2013-03-08 06:06:00,
2013-03-08 00:08:00,21.9,20.4,30.25,SE,135,5.0,10.0,94,0.00,,,0.00,Wunderground v.1.15,2013-03-08 06:08:00,
2013-03-08 00:10:00,21.9,20.4,30.25,SE,138,5.0,5.0,94,0.00,,,0.00,Wunderground v.1.15,2013-03-08 06:10:00,
2013-03-08 00:16:00,21.8,20.3,30.25,SSE,149,5.0,6.0,94,0.00,,,0.00,Wunderground v.1.15,2013-03-08 06:16:00,
2013-03-08 00:18:00,21.7,20.2,30.25,SSE,149,5.0,6.0,94,0.00,,,0.00,Wunderground v.1.15,2013-03-08 06:18:00,
2013-03-08 00:22:00,21.7,20.2,30.25,SSE,148,4.0,5.0,94,0.00,,,0.00,Wunderground v.1.15,2013-03-08 06:22:00,
2013-03-08 00:24:00,21.7,20.2,30.25,SE,136,5.0,5.0,94,0.00,,,0.00,Wunderground v.1.15,2013-03-08 06:24:00,
2013-03-08 00:26:00,21.7,20.2,30.25,SE,128,4.0,5.0,94,0.00,,,0.00,Wunderground v.1.15,2013-03-08 06:26:00,
2013-03-08 00:28:00,21.7,20.2,30.25,SE,136,4.0,5.0,94,0.00,,,0.00,Wunderground v.1.15,2013-03-08 06:28:00,
2013-03-08 00:32:00,21.7,20.2,30.25,SE,142,4.0,5.0,94,0.00,,,0.00,Wunderground v.1.15,2013-03-08 06:32:00,
2013-03-08 00:34:00,21.7,20.2,30.24,SSE,153,4.0,5.0,94,0.00,,,0.00,Wunderground v.1.15,2013-03-08 06:34:00,
2013-03-08 00:36:00,21.6,20.1,30.24,SE,135,4.0,5.0,94,0.00,,,0.00,Wunderground v.1.15,2013-03-08 06:36:00,
2013-03-08 00:42:00,21.7,20.2,30.25,SE,124,5.0,5.0,94,0.00,,,0.00,Wunderground v.1.15,2013-03-08 06:42:00,
2013-03-08 00:44:00,21.6,20.1,30.25,SSE,155,5.0,5.0,94,0.00,,,0.00,Wunderground v.1.15,2013-03-08 06:44:00,
2013-03-08 00:45:00,21.7,20.2,30.25,SE,143,5.0,5.0,94,0.00,,,0.00,Wunderground v.1.15,2013-03-08 06:45:00,
2013-03-08 00:52:00,21.7,20.2,30.25,SE,128,4.0,5.0,94,0.00,,,0.00,Wunderground v.1.15,2013-03-08 06:52:00,
2013-03-08 00:56:00,21.7,20.2,30.25,SSE,149,4.0,5.0,94,0.00,,,0.00,Wunderground v.1.15,2013-03-08 06:56:00,
2013-03-08 00:58:00,21.7,20.2,30.25,SSE,149,4.0,5.0,94,0.00,,,0.00,Wunderground v.1.15,2013-03-08 06:58:00,
2013-03-08 01:00:00,21.7,20.2,30.25,SE,137,4.0,4.0,94,0.00,,,0.00,Wunderground v.1.15,2013-03-08 07:00:00,
2013-03-08 01:06:00,21.6,20.1,30.25,ESE,122,4.0,7.0,94,0.00,,,0.00,Wunderground v.1.15,2013-03-08 07:06:00,
2013-03-08 01:10:00,21.6,20.1,30.25,SE,132,4.0,7.0,94,0.00,,,0.00,Wunderground v.1.15,2013-03-08 07:10:00,
2013-03-08 01:14:00,21.6,20.1,30.25,SE,135,4.0,7.0,94,0.00,,,0.00,Wunderground v.1.15,2013-03-08 07:14:00,
2013-03-08 01:16:00,21.6,20.1,30.25,SE,135,4.0,7.0,94,0.00,,,0.00,Wunderground v.1.15,2013-03-08 07:16:00,
2013-03-08 01:20:00,21.6,20.1,30.25,SE,125,4.0,7.0,94,0.00,,,0.00,Wunderground v.1.15,2013-03-08 07:20:00,
2013-03-08 01:22:00,21.5,20.0,30.25,SE,124,3.0,7.0,94,0.00,,,0.00,Wunderground v.1.15,2013-03-08 07:22:00,
2013-03-08 01:26:00,21.5,20.0,30.25,SE,139,4.0,7.0,94,0.00,,,0.00,Wunderground v.1.15,2013-03-08 07:26:00,
2013-03-08 01:28:00,21.5,20.0,30.25,SE,141,4.0,7.0,94,0.00,,,0.00,Wunderground v.1.15,2013-03-08 07:28:00,
2013-03-08 01:30:00,21.5,20.0,30.25,SE,138,4.0,7.0,94,0.00,,,0.00,Wunderground v.1.15,2013-03-08 07:30:00,
2013-03-08 01:32:00,21.5,20.0,30.25,SE,132,4.0,7.0,94,0.00,,,0.00,Wunderground v.1.15,2013-03-08 07:32:00,
2013-03-08 01:34:00,21.5,20.0,30.25,ESE,122,4.0,7.0,94,0.00,,,0.00,Wunderground v.1.15,2013-03-08 07:34:00,
2013-03-08 01:36:00,21.5,20.0,30.25,SE,143,4.0,7.0,94,0.00,,,0.00,Wunderground v.1.15,2013-03-08 07:36:00,
2013-03-08 01:38:00,21.5,20.0,30.25,SE,142,4.0,7.0,94,0.00,,,0.00,Wunderground v.1.15,2013-03-08 07:38:00,
2013-03-08 01:42:00,21.3,19.8,30.25,SE,129,3.0,7.0,94,0.00,,,0.00,Wunderground v.1.15,2013-03-08 07:42:00,
2013-03-08 01:44:00,21.2,19.7,30.25,SSE,148,3.0,7.0,94,0.00,,,0.00,Wunderground v.1.15,2013-03-08 07:44:00,
2013-03-08 01:50:00,21.1,19.6,30.25,SE,143,3.0,7.0,94,0.00,,,0.00,Wunderground v.1.15,2013-03-08 07:50:00,
2013-03-08 01:52:00,21.1,19.6,30.25,SE,131,3.0,7.0,94,0.00,,,0.00,Wunderground v.1.15,2013-03-08 07:52:00,
2013-03-08 01:54:00,21.0,19.5,30.25,SE,138,3.0,7.0,94,0.00,,,0.00,Wunderground v.1.15,2013-03-08 07:54:00,
2013-03-08 01:56:00,21.0,19.5,30.25,SE,133,3.0,7.0,94,0.00,,,0.00,Wunderground v.1.15,2013-03-08 07:56:00,
2013-03-08 01:58:00,20.9,19.4,30.25,SE,124,3.0,7.0,94,0.00,,,0.00,Wunderground v.1.15,2013-03-08 07:58:00,
2013-03-08 02:04:00,20.8,19.3,30.25,SE,124,4.0,7.0,94,0.00,,,0.00,Wunderground v.1.15,2013-03-08 08:04:00,
2013-03-08 02:08:00,20.6,19.1,30.25,ESE,115,4.0,7.0,94,0.00,,,0.00,Wunderground v.1.15,2013-03-08 08:08:00,
2013-03-08 02:11:00,20.5,19.0,30.25,SE,126,3.0,7.0,94,0.00,,,0.00,Wunderground v.1.15,2013-03-08 08:11:00,
2013-03-08 02:15:00,20.4,18.9,30.25,SE,136,3.0,7.0,94,0.00,,,0.00,Wunderground v.1.15,2013-03-08 08:15:00,
2013-03-08 02:17:00,20.3,18.8,30.26,SE,138,3.0,7.0,94,0.00,,,0.00,Wunderground v.1.15,2013-03-08 08:17:00,
2013-03-08 02:22:00,20.1,18.7,30.25,SE,132,2.0,7.0,94,0.00,,,0.00,Wunderground v.1.15,2013-03-08 08:22:00,
2013-03-08 02:28:00,20.0,18.6,30.25,SE,135,2.0,7.0,94,0.00,,,0.00,Wunderground v.1.15,2013-03-08 08:28:00,
2013-03-08 02:32:00,20.0,18.6,30.25,SE,129,3.0,7.0,94,0.00,,,0.00,Wunderground v.1.15,2013-03-08 08:32:00,
2013-03-08 02:34:00,20.0,18.8,30.25,SE,131,3.0,7.0,95,0.00,,,0.00,Wunderground v.1.15,2013-03-08 08:34:00,
2013-03-08 02:38:00,19.9,18.7,30.25,SE,128,3.0,7.0,95,0.00,,,0.00,Wunderground v.1.15,2013-03-08 08:38:00,
2013-03-08 02:40:00,19.9,18.7,30.25,SE,129,3.0,3.0,95,0.00,,,0.00,Wunderground v.1.15,2013-03-08 08:40:00,
2013-03-08 02:43:00,19.9,18.7,30.25,SE,138,3.0,7.0,95,0.00,,,0.00,Wunderground v.1.15,2013-03-08 08:43:00,
2013-03-08 02:46:00,19.7,18.3,30.25,ESE,121,3.0,7.0,94,0.00,,,0.00,Wunderground v.1.15,2013-03-08 08:46:00,
2013-03-08 02:50:00,19.7,18.5,30.25,ESE,111,2.0,7.0,95,0.00,,,0.00,Wunderground v.1.15,2013-03-08 08:50:00,
2013-03-08 02:52:00,19.7,18.5,30.25,SE,138,2.0,7.0,95,0.00,,,0.00,Wunderground v.1.15,2013-03-08 08:52:00,
2013-03-08 02:54:00,19.7,18.5,30.25,SE,128,2.0,7.0,95,0.00,,,0.00,Wunderground v.1.15,2013-03-08 08:54:00,
2013-03-08 02:56:00,19.7,18.5,30.25,SE,129,2.0,7.0,95,0.00,,,0.00,Wunderground v.1.15,2013-03-08 08:56:00,
2013-03-08 02:58:00,19.7,18.5,30.25,SE,129,2.0,7.0,95,0.00,,,0.00,Wunderground v.1.15,2013-03-08 08:58:00,
2013-03-08 03:02:00,19.7,18.5,30.25,SE,127,2.0,7.0,95,0.00,,,0.00,Wunderground v.1.15,2013-03-08 09:02:00,
2013-03-08 03:04:00,19.7,18.5,30.25,SE,135,2.0,7.0,95,0.00,,,0.00,Wunderground v.1.15,2013-03-08 09:04:00,
2013-03-08 03:06:00,19.7,18.5,30.24,ESE,120,2.0,7.0,95,0.00,,,0.00,Wunderground v.1.15,2013-03-08 09:06:00,
2013-03-08 03:10:00,19.8,18.6,30.24,SE,131,3.0,7.0,95,0.00,,,0.00,Wunderground v.1.15,2013-03-08 09:10:00,
2013-03-08 03:13:00,19.8,18.6,30.24,SE,128,3.0,7.0,95,0.00,,,0.00,Wunderground v.1.15,2013-03-08 09:13:00,
2013-03-08 03:18:00,19.8,18.6,30.24,SE,132,3.0,7.0,95,0.00,,,0.00,Wunderground v.1.15,2013-03-08 09:18:00,
2013-03-08 03:20:00,19.8,18.6,30.24,SE,133,3.0,7.0,95,0.00,,,0.00,Wunderground v.1.15,2013-03-08 09:20:00,
2013-03-08 03:24:00,19.9,18.7,30.24,SE,129,3.0,7.0,95,0.00,,,0.00,Wunderground v.1.15,2013-03-08 09:24:00,
2013-03-08 03:28:00,19.9,18.7,30.24,SE,129,3.0,7.0,95,0.00,,,0.00,Wunderground v.1.15,2013-03-08 09:28:00,
2013-03-08 03:32:00,19.8,18.6,30.23,SSE,148,3.0,4.0,95,0.00,,,0.00,Wunderground v.1.15,2013-03-08 09:32:00,
2013-03-08 03:34:00,19.9,18.7,30.23,SE,128,3.0,7.0,95,0.00,,,0.00,Wunderground v.1.15,2013-03-08 09:34:00,
2013-03-08 03:37:00,19.9,18.7,30.24,SE,136,3.0,7.0,95,0.00,,,0.00,Wunderground v.1.15,2013-03-08 09:37:00,
2013-03-08 03:42:00,19.9,18.7,30.24,SE,137,3.0,7.0,95,0.00,,,0.00,Wunderground v.1.15,2013-03-08 09:42:00,
2013-03-08 03:44:00,19.9,18.7,30.23,ESE,118,3.0,7.0,95,0.00,,,0.00,Wunderground v.1.15,2013-03-08 09:44:00,
2013-03-08 03:48:00,19.8,18.6,30.23,SE,135,3.0,7.0,95,0.00,,,0.00,Wunderground v.1.15,2013-03-08 09:48:00,
2013-03-08 03:52:00,19.7,18.5,30.23,ESE,117,3.0,7.0,95,0.00,,,0.00,Wunderground v.1.15,2013-03-08 09:52:00,
2013-03-08 03:54:00,19.8,18.6,30.23,SE,134,3.0,7.0,95,0.00,,,0.00,Wunderground v.1.15,2013-03-08 09:54:00,
2013-03-08 03:58:00,19.8,18.6,30.23,SE,135,4.0,7.0,95,0.00,,,0.00,Wunderground v.1.15,2013-03-08 09:58:00,
2013-03-08 04:00:00,19.8,18.6,30.24,ESE,115,4.0,4.0,95,0.00,,,0.00,Wunderground v.1.15,2013-03-08 10:00:00,
2013-03-08 04:06:00,19.7,18.5,30.24,SE,135,3.0,7.0,95,0.00,,,0.00,Wunderground v.1.15,2013-03-08 10:06:00,
2013-03-08 04:08:00,19.7,18.5,30.24,SE,132,3.0,7.0,95,0.00,,,0.00,Wunderground v.1.15,2013-03-08 10:08:00,
2013-03-08 04:10:00,19.6,18.4,30.24,SE,137,3.0,7.0,95,0.00,,,0.00,Wunderground v.1.15,2013-03-08 10:10:00,
2013-03-08 04:14:00,19.6,18.4,30.23,ESE,123,3.0,7.0,95,0.00,,,0.00,Wunderground v.1.15,2013-03-08 10:14:00,
2013-03-08 04:16:00,19.5,18.3,30.24,SE,142,3.0,7.0,95,0.00,,,0.00,Wunderground v.1.15,2013-03-08 10:16:00,
2013-03-08 04:18:00,19.5,18.3,30.24,SE,129,3.0,7.0,95,0.00,,,0.00,Wunderground v.1.15,2013-03-08 10:18:00,
2013-03-08 04:24:00,19.5,18.3,30.24,ESE,122,2.0,7.0,95,0.00,,,0.00,Wunderground v.1.15,2013-03-08 10:24:00,
2013-03-08 04:27:00,19.4,18.2,30.24,ESE,111,2.0,7.0,95,0.00,,,0.00,Wunderground v.1.15,2013-03-08 10:27:00,
2013-03-08 04:29:00,19.4,18.2,30.24,SE,131,2.0,7.0,95,0.00,,,0.00,Wunderground v.1.15,2013-03-08 10:29:00,
2013-03-08 04:32:00,19.4,18.2,30.24,SE,131,2.0,7.0,95,0.00,,,0.00,Wunderground v.1.15,2013-03-08 10:32:00,
2013-03-08 04:36:00,19.5,18.3,30.24,SE,132,2.0,7.0,95,0.00,,,0.00,Wunderground v.1.15,2013-03-08 10:36:00,
2013-03-08 04:40:00,19.6,18.4,30.24,SE,134,2.0,7.0,95,0.00,,,0.00,Wunderground v.1.15,2013-03-08 10:40:00,
2013-03-08 04:42:00,19.6,18.4,30.24,ESE,111,2.0,7.0,95,0.00,,,0.00,Wunderground v.1.15,2013-03-08 10:42:00,
2013-03-08 04:44:00,19.6,18.4,30.24,SE,129,2.0,7.0,95,0.00,,,0.00,Wunderground v.1.15,2013-03-08 10:44:00,
2013-03-08 04:46:00,19.5,18.3,30.24,SE,133,1.0,7.0,95,0.00,,,0.00,Wunderground v.1.15,2013-03-08 10:46:00,
2013-03-08 04:50:00,19.4,18.2,30.24,SE,125,1.0,7.0,95,0.00,,,0.00,Wunderground v.1.15,2013-03-08 10:50:00,
2013-03-08 04:54:00,19.3,18.1,30.24,SE,129,1.0,7.0,95,0.00,,,0.00,Wunderground v.1.15,2013-03-08 10:54:00,
2013-03-08 04:56:00,19.3,18.1,30.24,SE,129,1.0,7.0,95,0.00,,,0.00,Wunderground v.1.15,2013-03-08 10:56:00,
2013-03-08 04:58:00,19.2,18.0,30.24,SE,128,2.0,7.0,95,0.00,,,0.00,Wunderground v.1.15,2013-03-08 10:58:00,
2013-03-08 05:02:00,19.3,18.1,30.24,SE,128,2.0,7.0,95,0.00,,,0.00,Wunderground v.1.15,2013-03-08 11:02:00,
2013-03-08 05:04:00,19.4,18.2,30.24,SE,133,2.0,7.0,95,0.00,,,0.00,Wunderground v.1.15,2013-03-08 11:04:00,
2013-03-08 05:08:00,19.4,18.2,30.24,SE,146,2.0,7.0,95,0.00,,,0.00,Wunderground v.1.15,2013-03-08 11:08:00,
2013-03-08 05:14:00,19.3,18.1,30.24,SE,124,2.0,7.0,95,0.00,,,0.00,Wunderground v.1.15,2013-03-08 11:14:00,
2013-03-08 05:16:00,19.3,18.1,30.24,SE,129,2.0,7.0,95,0.00,,,0.00,Wunderground v.1.15,2013-03-08 11:16:00,
2013-03-08 05:21:00,19.2,18.0,30.24,SE,135,2.0,7.0,95,0.00,,,0.00,Wunderground v.1.15,2013-03-08 11:21:00,
2013-03-08 05:26:00,19.2,18.0,30.24,SE,132,2.0,7.0,95,0.00,,,0.00,Wunderground v.1.15,2013-03-08 11:26:00,
2013-03-08 05:28:00,19.2,18.0,30.24,SE,138,2.0,7.0,95,0.00,,,0.00,Wunderground v.1.15,2013-03-08 11:28:00,
2013-03-08 05:34:00,19.0,17.8,30.24,SE,128,2.0,7.0,95,0.00,,,0.00,Wunderground v.1.15,2013-03-08 11:34:00,
2013-03-08 05:36:00,19.0,17.8,30.24,SE,137,2.0,7.0,95,0.00,,,0.00,Wunderground v.1.15,2013-03-08 11:36:00,
2013-03-08 05:38:00,18.9,17.7,30.24,SE,135,2.0,7.0,95,0.00,,,0.00,Wunderground v.1.15,2013-03-08 11:38:00,
2013-03-08 05:42:00,18.8,17.6,30.24,SE,145,2.0,7.0,95,0.00,,,0.00,Wunderground v.1.15,2013-03-08 11:42:00,
2013-03-08 05:44:00,18.8,17.6,30.24,SE,142,2.0,7.0,95,0.00,,,0.00,Wunderground v.1.15,2013-03-08 11:44:00,
2013-03-08 05:48:00,18.8,17.6,30.24,SE,142,2.0,7.0,95,0.00,,,0.00,Wunderground v.1.15,2013-03-08 11:48:00,
2013-03-08 05:54:00,18.8,17.6,30.24,SE,125,2.0,7.0,95,0.00,,,0.00,Wunderground v.1.15,2013-03-08 11:54:00,
2013-03-08 05:58:00,18.9,17.7,30.24,SE,143,2.0,7.0,95,0.00,,,0.00,Wunderground v.1.15,2013-03-08 11:58:00,
2013-03-08 06:00:00,18.9,17.7,30.24,SE,135,2.0,7.0,95,0.00,,,0.00,Wunderground v.1.15,2013-03-08 12:00:00,
2013-03-08 06:02:00,18.9,17.7,30.24,SE,144,2.0,7.0,95,0.00,,,0.00,Wunderground v.1.15,2013-03-08 12:02:00,
2013-03-08 06:04:00,18.9,17.7,30.24,SSE,148,2.0,7.0,95,0.00,,,0.00,Wunderground v.1.15,2013-03-08 12:04:00,
2013-03-08 06:08:00,18.8,17.6,30.24,SE,136,2.0,7.0,95,0.00,,,0.00,Wunderground v.1.15,2013-03-08 12:08:00,
2013-03-08 06:14:00,18.8,17.6,30.24,SE,129,2.0,7.0,95,0.00,,,0.00,Wunderground v.1.15,2013-03-08 12:14:00,
2013-03-08 06:16:00,18.8,17.6,30.24,SE,137,2.0,7.0,95,0.00,,,0.00,Wunderground v.1.15,2013-03-08 12:16:00,
2013-03-08 06:18:00,18.8,17.6,30.24,SE,140,2.0,7.0,95,0.00,,,0.00,Wunderground v.1.15,2013-03-08 12:18:00,
2013-03-08 06:22:00,18.8,17.6,30.24,SE,137,3.0,7.0,95,0.00,,,0.00,Wunderground v.1.15,2013-03-08 12:22:00,
2013-03-08 06:24:00,18.8,17.6,30.24,SE,128,3.0,7.0,95,0.00,,,0.00,Wunderground v.1.15,2013-03-08 12:24:00,
2013-03-08 06:26:00,18.9,17.7,30.24,SE,136,3.0,7.0,95,0.00,,,0.00,Wunderground v.1.15,2013-03-08 12:26:00,
2013-03-08 06:30:00,18.8,17.6,30.24,SSW,194,2.0,7.0,95,0.00,,,0.00,Wunderground v.1.15,2013-03-08 12:30:00,
2013-03-08 06:34:00,18.8,17.6,30.24,SSE,148,2.0,7.0,95,0.00,,,0.00,Wunderground v.1.15,2013-03-08 12:34:00,
2013-03-08 06:36:00,18.7,17.5,30.24,SSW,204,2.0,7.0,95,0.00,,,0.00,Wunderground v.1.15,2013-03-08 12:36:00,
2013-03-08 06:38:00,18.7,17.5,30.24,SE,145,2.0,7.0,95,0.00,,,0.00,Wunderground v.1.15,2013-03-08 12:38:00,
2013-03-08 06:42:00,18.6,17.4,30.24,SSE,158,2.0,7.0,95,0.00,,,0.00,Wunderground v.1.15,2013-03-08 12:42:00,
2013-03-08 06:44:00,18.6,17.4,30.24,SSE,165,2.0,7.0,95,0.00,,,0.00,Wunderground v.1.15,2013-03-08 12:44:00,
2013-03-08 06:48:00,18.5,17.3,30.24,SE,135,2.0,7.0,95,0.00,,,0.00,Wunderground v.1.15,2013-03-08 12:48:00,
2013-03-08 06:52:00,18.5,17.3,30.24,SSW,204,2.0,7.0,95,0.00,,,0.00,Wunderground v.1.15,2013-03-08 12:52:00,
2013-03-08 06:54:00,18.4,17.2,30.24,SE,139,1.0,7.0,95,0.00,,,0.00,Wunderground v.1.15,2013-03-08 12:54:00,
2013-03-08 06:58:00,18.4,17.2,30.24,SSW,211,1.0,7.0,95,0.00,,,0.00,Wunderground v.1.15,2013-03-08 12:58:00,
2013-03-08 07:00:00,18.5,17.3,30.24,SE,139,1.0,7.0,95,0.00,,,0.00,Wunderground v.1.15,2013-03-08 13:00:00,
2013-03-08 07:02:00,18.5,17.3,30.24,WNW,302,1.0,7.0,95,0.00,,,0.00,Wunderground v.1.15,2013-03-08 13:02:00,
2013-03-08 07:04:00,18.5,17.3,30.24,SSE,149,1.0,7.0,95,0.00,,,0.00,Wunderground v.1.15,2013-03-08 13:04:00,
2013-03-08 07:06:00,18.5,17.3,30.24,SW,215,1.0,7.0,95,0.00,,,0.00,Wunderground v.1.15,2013-03-08 13:06:00,
2013-03-08 07:12:00,18.6,17.4,30.24,South,179,2.0,7.0,95,0.00,,,0.00,Wunderground v.1.15,2013-03-08 13:12:00,
2013-03-08 07:18:00,18.6,17.4,30.24,SE,142,1.0,7.0,95,0.00,,,0.00,Wunderground v.1.15,2013-03-08 13:18:00,
2013-03-08 07:20:00,18.6,17.4,30.24,South,172,1.0,7.0,95,0.00,,,0.00,Wunderground v.1.15,2013-03-08 13:20:00,
2013-03-08 07:24:00,18.8,17.6,30.24,SW,217,1.0,7.0,95,0.00,,,0.00,Wunderground v.1.15,2013-03-08 13:24:00,
2013-03-08 07:26:00,18.8,17.6,30.24,SE,145,2.0,7.0,95,0.00,,,0.00,Wunderground v.1.15,2013-03-08 13:26:00,
2013-03-08 07:28:00,18.9,17.7,30.24,SSW,203,2.0,7.0,95,0.00,,,0.00,Wunderground v.1.15,2013-03-08 13:28:00,
2013-03-08 07:30:00,18.9,17.7,30.24,SSE,162,2.0,7.0,95,0.00,,,0.00,Wunderground v.1.15,2013-03-08 13:30:00,
2013-03-08 07:35:00,19.1,17.9,30.24,South,173,1.0,7.0,95,0.00,,,0.00,Wunderground v.1.15,2013-03-08 13:35:00,
2013-03-08 07:38:00,19.1,17.9,30.24,SSE,155,1.0,7.0,95,0.00,,,0.00,Wunderground v.1.15,2013-03-08 13:38:00,
2013-03-08 07:40:00,19.2,18.0,30.24,SSE,153,1.0,7.0,95,0.00,,,0.00,Wunderground v.1.15,2013-03-08 13:40:00,
2013-03-08 07:44:00,19.3,18.1,30.24,SSE,154,2.0,7.0,95,0.00,,,0.00,Wunderground v.1.15,2013-03-08 13:44:00,
2013-03-08 07:46:00,19.3,18.1,30.24,SSE,152,2.0,7.0,95,0.00,,,0.00,Wunderground v.1.15,2013-03-08 13:46:00,
2013-03-08 07:50:00,19.3,18.1,30.24,SE,138,2.0,7.0,95,0.00,,,0.00,Wunderground v.1.15,2013-03-08 13:50:00,
2013-03-08 07:56:00,19.4,18.0,30.24,SSW,195,2.0,7.0,94,0.00,,,0.00,Wunderground v.1.15,2013-03-08 13:56:00,
2013-03-08 08:00:00,19.5,18.1,30.24,South,184,2.0,7.0,94,0.00,,,0.00,Wunderground v.1.15,2013-03-08 14:00:00,
2013-03-08 08:02:00,19.5,18.1,30.24,SE,141,2.0,7.0,94,0.00,,,0.00,Wunderground v.1.15,2013-03-08 14:02:00,
2013-03-08 08:06:00,19.7,18.3,30.24,SSE,166,2.0,7.0,94,0.00,,,0.00,Wunderground v.1.15,2013-03-08 14:06:00,
2013-03-08 08:08:00,19.8,18.4,30.25,SSW,198,2.0,7.0,94,0.00,,,0.00,Wunderground v.1.15,2013-03-08 14:08:00,
2013-03-08 08:10:00,19.9,18.5,30.25,South,172,2.0,7.0,94,0.00,,,0.00,Wunderground v.1.15,2013-03-08 14:10:00,
2013-03-08 08:16:00,20.1,18.7,30.25,South,170,1.0,7.0,94,0.00,,,0.00,Wunderground v.1.15,2013-03-08 14:16:00,
2013-03-08 08:20:00,20.4,18.9,30.25,SE,138,1.0,7.0,94,0.00,,,0.00,Wunderground v.1.15,2013-03-08 14:20:00,
2013-03-08 08:26:00,20.7,19.2,30.25,SSE,150,3.0,7.0,94,0.00,,,0.00,Wunderground v.1.15,2013-03-08 14:26:00,
2013-03-08 08:28:00,20.9,19.4,30.25,SE,142,3.0,7.0,94,0.00,,,0.00,Wunderground v.1.15,2013-03-08 14:28:00,
2013-03-08 08:34:00,21.3,19.8,30.25,SE,138,3.0,7.0,94,0.00,,,0.00,Wunderground v.1.15,2013-03-08 14:34:00,
2013-03-08 08:36:00,21.5,20.0,30.25,SE,124,3.0,7.0,94,0.00,,,0.00,Wunderground v.1.15,2013-03-08 14:36:00,
2013-03-08 08:42:00,22.0,20.8,30.25,SE,146,3.0,7.0,95,0.00,,,0.00,Wunderground v.1.15,2013-03-08 14:42:00,
2013-03-08 08:44:00,22.3,21.1,30.25,SSE,163,3.0,7.0,95,0.00,,,0.00,Wunderground v.1.15,2013-03-08 14:44:00,
2013-03-08 08:46:00,22.5,21.0,30.25,SE,141,3.0,7.0,94,0.00,,,0.00,Wunderground v.1.15,2013-03-08 14:46:00,
2013-03-08 08:50:00,23.0,21.5,30.25,SE,129,3.0,7.0,94,0.00,,,0.00,Wunderground v.1.15,2013-03-08 14:50:00,
2013-03-08 08:52:00,23.1,21.6,30.25,SSE,148,3.0,7.0,94,0.00,,,0.00,Wunderground v.1.15,2013-03-08 14:52:00,
2013-03-08 08:54:00,23.3,21.6,30.25,SE,129,3.0,7.0,93,0.00,,,0.00,Wunderground v.1.15,2013-03-08 14:54:00,
2013-03-08 08:58:00,23.5,21.8,30.25,SE,133,4.0,7.0,93,0.00,,,0.00,Wunderground v.1.15,2013-03-08 14:58:00,
2013-03-08 09:04:00,23.8,22.1,30.25,SE,141,4.0,7.0,93,0.00,,,0.00,Wunderground v.1.15,2013-03-08 15:04:00,
2013-03-08 09:06:00,24.0,22.3,30.24,SE,135,4.0,7.0,93,0.00,,,0.00,Wunderground v.1.15,2013-03-08 15:06:00,
2013-03-08 09:12:00,24.4,22.4,30.24,SSE,149,4.0,7.0,92,0.00,,,0.00,Wunderground v.1.15,2013-03-08 15:12:00,
2013-03-08 09:14:00,24.6,22.6,30.24,SE,131,4.0,7.0,92,0.00,,,0.00,Wunderground v.1.15,2013-03-08 15:14:00,
2013-03-08 09:16:00,24.7,22.7,30.24,SSE,155,4.0,7.0,92,0.00,,,0.00,Wunderground v.1.15,2013-03-08 15:16:00,
2013-03-08 09:22:00,25.2,23.2,30.24,SSE,148,4.0,7.0,92,0.00,,,0.00,Wunderground v.1.15,2013-03-08 15:22:00,
2013-03-08 09:28:00,25.6,23.3,30.24,SE,143,4.0,7.0,91,0.00,,,0.00,Wunderground v.1.15,2013-03-08 15:28:00,
2013-03-08 09:30:00,25.8,23.5,30.24,South,179,4.0,4.0,91,0.00,,,0.00,Wunderground v.1.15,2013-03-08 15:30:00,
2013-03-08 09:32:00,26.0,23.7,30.24,SE,141,4.0,7.0,91,0.00,,,0.00,Wunderground v.1.15,2013-03-08 15:32:00,
2013-03-08 09:38:00,26.4,23.9,30.24,SE,128,3.0,7.0,90,0.00,,,0.00,Wunderground v.1.15,2013-03-08 15:38:00,
2013-03-08 09:44:00,27.0,24.5,30.24,SE,139,4.0,7.0,90,0.00,,,0.00,Wunderground v.1.15,2013-03-08 15:44:00,
2013-03-08 09:50:00,27.2,24.4,30.24,SSE,147,4.0,7.0,89,0.00,,,0.00,Wunderground v.1.15,2013-03-08 15:50:00,
2013-03-08 09:51:00,27.2,24.4,30.24,SE,127,4.0,7.0,89,0.00,,,0.00,Wunderground v.1.15,2013-03-08 15:51:00,
2013-03-08 09:54:00,27.3,24.5,30.24,SE,128,4.0,7.0,89,0.00,,,0.00,Wunderground v.1.15,2013-03-08 15:54:00,
2013-03-08 10:00:00,27.4,24.6,30.24,SE,135,5.0,7.0,89,0.00,,,0.00,Wunderground v.1.15,2013-03-08 16:00:00,
2013-03-08 10:02:00,27.4,24.6,30.24,SSE,147,5.0,7.0,89,0.00,,,0.00,Wunderground v.1.15,2013-03-08 16:02:00,
2013-03-08 10:06:00,27.6,24.8,30.24,SE,145,5.0,7.0,89,0.00,,,0.00,Wunderground v.1.15,2013-03-08 16:06:00,
2013-03-08 10:08:00,27.7,24.9,30.24,SE,125,5.0,7.0,89,0.00,,,0.00,Wunderground v.1.15,2013-03-08 16:08:00,
2013-03-08 10:12:00,27.9,25.1,30.24,SE,127,5.0,7.0,89,0.00,,,0.00,Wunderground v.1.15,2013-03-08 16:12:00,
2013-03-08 10:14:00,28.1,25.5,30.24,SE,125,5.0,7.0,90,0.00,,,0.00,Wunderground v.1.15,2013-03-08 16:14:00,
2013-03-08 10:17:00,28.2,25.1,30.24,SE,128,5.0,7.0,88,0.00,,,0.00,Wunderground v.1.15,2013-03-08 16:17:00,
2013-03-08 10:22:00,28.3,25.5,30.24,SE,143,5.0,7.0,89,0.00,,,0.00,Wunderground v.1.15,2013-03-08 16:22:00,
2013-03-08 10:24:00,28.5,25.7,30.24,SE,146,5.0,7.0,89,0.00,,,0.00,Wunderground v.1.15,2013-03-08 16:24:00,
2013-03-08 10:26:00,28.6,25.8,30.24,ESE,115,5.0,7.0,89,0.00,,,0.00,Wunderground v.1.15,2013-03-08 16:26:00,
2013-03-08 10:30:00,28.9,26.1,30.24,SE,129,4.0,7.0,89,0.00,,,0.00,Wunderground v.1.15,2013-03-08 16:30:00,
2013-03-08 10:34:00,29.3,26.5,30.24,SE,136,4.0,7.0,89,0.00,,,0.00,Wunderground v.1.15,2013-03-08 16:34:00,
2013-03-08 10:36:00,29.4,26.6,30.24,SE,128,4.0,7.0,89,0.00,,,0.00,Wunderground v.1.15,2013-03-08 16:36:00,
2013-03-08 10:41:00,30.0,27.2,30.24,SE,138,4.0,7.0,89,0.00,,,0.00,Wunderground v.1.15,2013-03-08 16:41:00,
2013-03-08 10:48:00,30.5,27.4,30.23,SE,143,5.0,7.0,88,0.00,,,0.00,Wunderground v.1.15,2013-03-08 16:48:00,
2013-03-08 10:50:00,30.6,27.5,30.23,SE,132,5.0,5.0,88,0.00,,,0.00,Wunderground v.1.15,2013-03-08 16:50:00,
2013-03-08 10:56:00,31.0,27.9,30.23,SE,136,4.0,7.0,88,0.00,,,0.00,Wunderground v.1.15,2013-03-08 16:56:00,
2013-03-08 10:58:00,31.1,27.7,30.23,SE,132,4.0,7.0,87,0.00,,,0.00,Wunderground v.1.15,2013-03-08 16:58:00,
2013-03-08 11:01:00,31.4,28.0,30.22,SE,145,4.0,7.0,87,0.00,,,0.00,Wunderground v.1.15,2013-03-08 17:01:00,
2013-03-08 11:04:00,31.5,27.8,30.22,SE,136,4.0,7.0,86,0.00,,,0.00,Wunderground v.1.15,2013-03-08 17:04:00,
2013-03-08 11:06:00,31.6,27.9,30.22,ESE,122,4.0,7.0,86,0.00,,,0.00,Wunderground v.1.15,2013-03-08 17:06:00,
2013-03-08 11:12:00,32.1,28.4,30.21,SSE,163,4.0,7.0,86,0.00,,,0.00,Wunderground v.1.15,2013-03-08 17:12:00,
2013-03-08 11:18:00,32.7,28.7,30.21,SSE,151,4.0,7.0,85,0.00,,,0.00,Wunderground v.1.15,2013-03-08 17:18:00,
2013-03-08 11:24:00,33.0,29.0,30.21,SE,139,4.0,7.0,85,0.00,,,0.00,Wunderground v.1.15,2013-03-08 17:24:00,
2013-03-08 11:26:00,33.0,29.0,30.21,SE,136,4.0,7.0,85,0.00,,,0.00,Wunderground v.1.15,2013-03-08 17:26:00,
2013-03-08 11:30:00,33.0,29.0,30.21,SE,134,5.0,5.0,85,0.00,,,0.00,Wunderground v.1.15,2013-03-08 17:30:00,
2013-03-08 11:34:00,33.2,29.5,30.21,SE,129,4.0,7.0,86,0.00,,,0.00,Wunderground v.1.15,2013-03-08 17:34:00,
2013-03-08 11:38:00,33.4,29.4,30.21,SE,141,4.0,7.0,85,0.00,,,0.00,Wunderground v.1.15,2013-03-08 17:38:00,
2013-03-08 11:40:00,33.6,29.6,30.21,SE,134,4.0,4.0,85,0.00,,,0.00,Wunderground v.1.15,2013-03-08 17:40:00,
2013-03-08 11:44:00,34.0,30.3,30.21,SE,134,4.0,7.0,86,0.00,,,0.00,Wunderground v.1.15,2013-03-08 17:44:00,
2013-03-08 11:46:00,34.5,30.5,30.21,South,187,3.0,7.0,85,0.00,,,0.00,Wunderground v.1.15,2013-03-08 17:46:00,
2013-03-08 11:48:00,34.9,30.8,30.21,SE,135,3.0,7.0,85,0.00,,,0.00,Wunderground v.1.15,2013-03-08 17:48:00,
2013-03-08 11:54:00,35.2,30.6,30.21,SE,127,3.0,7.0,83,0.00,,,0.01,Wunderground v.1.15,2013-03-08 17:54:00,
2013-03-08 11:56:00,35.2,30.6,30.20,SE,143,4.0,7.0,83,0.00,,,0.01,Wunderground v.1.15,2013-03-08 17:56:00,
2013-03-08 11:58:00,35.2,30.6,30.20,SE,135,4.0,7.0,83,0.00,,,0.01,Wunderground v.1.15,2013-03-08 17:58:00,
2013-03-08 12:00:00,35.0,30.1,30.20,SE,134,4.0,7.0,82,0.00,,,0.01,Wunderground v.1.15,2013-03-08 18:00:00,
2013-03-08 12:04:00,35.1,30.5,30.21,SE,145,5.0,7.0,83,0.00,,,0.01,Wunderground v.1.15,2013-03-08 18:04:00,
2013-03-08 12:06:00,35.1,30.5,30.21,ESE,121,5.0,7.0,83,0.00,,,0.01,Wunderground v.1.15,2013-03-08 18:06:00,
2013-03-08 12:12:00,35.1,30.8,30.21,SE,131,4.0,4.0,84,0.00,,,0.01,Wunderground v.1.15,2013-03-08 18:12:00,
2013-03-08 12:14:00,35.2,30.9,30.20,SE,127,4.0,5.0,84,0.00,,,0.01,Wunderground v.1.15,2013-03-08 18:14:00,
2013-03-08 12:16:00,35.3,30.7,30.20,SE,136,4.0,6.0,83,0.00,,,0.01,Wunderground v.1.15,2013-03-08 18:16:00,
2013-03-08 12:22:00,35.3,30.7,30.20,SE,131,5.0,5.0,83,0.00,,,0.01,Wunderground v.1.15,2013-03-08 18:22:00,
2013-03-08 12:24:00,35.2,30.6,30.19,SE,136,5.0,5.0,83,0.00,,,0.01,Wunderground v.1.15,2013-03-08 18:24:00,
2013-03-08 12:28:00,35.2,30.6,30.19,ESE,118,5.0,5.0,83,0.00,,,0.01,Wunderground v.1.15,2013-03-08 18:28:00,
2013-03-08 12:30:00,35.2,30.9,30.19,SE,144,5.0,5.0,84,0.00,,,0.01,Wunderground v.1.15,2013-03-08 18:30:00,
2013-03-08 12:34:00,35.2,30.6,30.18,SE,135,5.0,7.0,83,0.00,,,0.01,Wunderground v.1.15,2013-03-08 18:34:00,
2013-03-08 12:36:00,35.1,30.5,30.18,SE,139,5.0,7.0,83,0.00,,,0.01,Wunderground v.1.15,2013-03-08 18:36:00,
2013-03-08 12:40:00,34.9,30.6,30.18,SE,124,6.0,6.0,84,0.00,,,0.01,Wunderground v.1.15,2013-03-08 18:40:00,
2013-03-08 12:42:00,34.9,30.8,30.18,SE,138,6.0,6.0,85,0.00,,,0.01,Wunderground v.1.15,2013-03-08 18:42:00,
2013-03-08 12:45:00,35.0,30.9,30.17,SE,136,6.0,6.0,85,0.00,,,0.01,Wunderground v.1.15,2013-03-08 18:45:00,
2013-03-08 12:47:00,34.9,30.8,30.18,SE,127,6.0,6.0,85,0.00,,,0.01,Wunderground v.1.15,2013-03-08 18:47:00,
2013-03-08 12:50:00,34.9,30.8,30.17,ESE,121,5.0,6.0,85,0.00,,,0.01,Wunderground v.1.15,2013-03-08 18:50:00,
2013-03-08 12:54:00,35.1,31.3,30.17,SSE,160,5.0,6.0,86,0.00,,,0.01,Wunderground v.1.15,2013-03-08 18:54:00,
2013-03-08 12:58:00,35.1,31.0,30.17,SE,136,6.0,7.0,85,0.00,,,0.01,Wunderground v.1.15,2013-03-08 18:58:00,
2013-03-08 13:00:00,35.2,31.4,30.17,SE,136,6.0,6.0,86,0.00,,,0.01,Wunderground v.1.15,2013-03-08 19:00:00,
2013-03-08 13:04:00,35.6,31.8,30.17,SE,142,6.0,6.0,86,0.00,,,0.01,Wunderground v.1.15,2013-03-08 19:04:00,
2013-03-08 13:06:00,35.7,31.9,30.17,SE,139,6.0,6.0,86,0.00,,,0.01,Wunderground v.1.15,2013-03-08 19:06:00,
2013-03-08 13:08:00,35.9,31.8,30.16,SE,141,5.0,6.0,85,0.00,,,0.01,Wunderground v.1.15,2013-03-08 19:08:00,
2013-03-08 13:12:00,36.0,31.9,30.16,SE,145,5.0,6.0,85,0.00,,,0.01,Wunderground v.1.15,2013-03-08 19:12:00,
2013-03-08 13:14:00,36.2,32.1,30.16,SE,124,5.0,6.0,85,0.00,,,0.01,Wunderground v.1.15,2013-03-08 19:14:00,
2013-03-08 13:18:00,36.6,32.2,30.16,SE,127,5.0,6.0,84,0.00,,,0.01,Wunderground v.1.15,2013-03-08 19:18:00,
2013-03-08 13:20:00,36.8,32.7,30.16,SE,146,4.0,7.0,85,0.00,,,0.01,Wunderground v.1.15,2013-03-08 19:20:00,
2013-03-08 13:26:00,36.7,32.3,30.15,ESE,118,6.0,7.0,84,0.00,,,0.01,Wunderground v.1.15,2013-03-08 19:26:00,
2013-03-08 13:28:00,36.7,32.3,30.15,SE,126,6.0,7.0,84,0.00,,,0.01,Wunderground v.1.15,2013-03-08 19:28:00,
2013-03-08 13:32:00,36.7,32.6,30.15,SE,129,6.0,7.0,85,0.00,,,0.01,Wunderground v.1.15,2013-03-08 19:32:00,
2013-03-08 13:34:00,36.7,32.6,30.15,SE,139,6.0,7.0,85,0.00,,,0.01,Wunderground v.1.15,2013-03-08 19:34:00,
2013-03-08 13:40:00,36.7,32.3,30.15,SSE,153,6.0,6.0,84,0.00,,,0.01,Wunderground v.1.15,2013-03-08 19:40:00,
2013-03-08 13:42:00,36.8,32.4,30.15,SE,139,6.0,6.0,84,0.00,,,0.01,Wunderground v.1.15,2013-03-08 19:42:00,
2013-03-08 13:46:00,37.0,32.6,30.14,SE,134,6.0,7.0,84,0.00,,,0.01,Wunderground v.1.15,2013-03-08 19:46:00,
2013-03-08 13:52:00,37.1,32.7,30.14,SSE,148,6.0,6.0,84,0.00,,,0.01,Wunderground v.1.15,2013-03-08 19:52:00,
2013-03-08 13:53:00,37.1,32.7,30.13,South,169,6.0,6.0,84,0.00,,,0.01,Wunderground v.1.15,2013-03-08 19:53:00,
2013-03-08 14:00:00,37.7,33.3,30.13,SE,136,5.0,5.0,84,0.00,,,0.01,Wunderground v.1.15,2013-03-08 20:00:00,
2013-03-08 14:02:00,37.9,33.2,30.13,SE,135,5.0,6.0,83,0.00,,,0.01,Wunderground v.1.15,2013-03-08 20:02:00,
2013-03-08 14:04:00,38.1,33.4,30.13,South,188,4.0,6.0,83,0.00,,,0.01,Wunderground v.1.15,2013-03-08 20:04:00,
2013-03-08 14:06:00,38.3,33.6,30.13,South,176,4.0,6.0,83,0.00,,,0.01,Wunderground v.1.15,2013-03-08 20:06:00,
2013-03-08 14:12:00,38.5,33.5,30.14,SE,141,4.0,6.0,82,0.00,,,0.01,Wunderground v.1.15,2013-03-08 20:12:00,
2013-03-08 14:16:00,38.7,33.7,30.14,SW,224,4.0,6.0,82,0.00,,,0.01,Wunderground v.1.15,2013-03-08 20:16:00,
2013-03-08 14:18:00,38.9,33.6,30.14,South,171,4.0,6.0,81,0.00,,,0.01,Wunderground v.1.15,2013-03-08 20:18:00,
2013-03-08 14:20:00,39.0,33.7,30.14,SSE,162,4.0,6.0,81,0.00,,,0.01,Wunderground v.1.15,2013-03-08 20:20:00,
2013-03-08 14:22:00,39.0,33.7,30.14,SE,134,4.0,6.0,81,0.00,,,0.01,Wunderground v.1.15,2013-03-08 20:22:00,
2013-03-08 14:24:00,39.1,33.8,30.14,SSE,152,4.0,6.0,81,0.00,,,0.01,Wunderground v.1.15,2013-03-08 20:24:00,
2013-03-08 14:26:00,39.2,33.9,30.14,ESE,121,4.0,6.0,81,0.00,,,0.01,Wunderground v.1.15,2013-03-08 20:26:00,
2013-03-08 14:30:00,39.2,33.9,30.14,SSE,162,4.0,6.0,81,0.00,,,0.01,Wunderground v.1.15,2013-03-08 20:30:00,
2013-03-08 14:32:00,39.2,33.9,30.14,West,260,4.0,6.0,81,0.00,,,0.01,Wunderground v.1.15,2013-03-08 20:32:00,
2013-03-08 14:34:00,39.2,33.9,30.14,ESE,114,4.0,6.0,81,0.00,,,0.01,Wunderground v.1.15,2013-03-08 20:34:00,
2013-03-08 14:40:00,38.9,33.6,30.14,SW,230,3.0,6.0,81,0.00,,,0.01,Wunderground v.1.15,2013-03-08 20:40:00,
2013-03-08 14:42:00,38.8,33.5,30.13,SSW,205,3.0,6.0,81,0.00,,,0.01,Wunderground v.1.15,2013-03-08 20:42:00,
2013-03-08 14:46:00,38.6,33.6,30.13,WSW,242,3.0,6.0,82,0.00,,,0.01,Wunderground v.1.15,2013-03-08 20:46:00,
2013-03-08 14:48:00,38.5,33.5,30.13,SSE,156,4.0,6.0,82,0.00,,,0.01,Wunderground v.1.15,2013-03-08 20:48:00,
2013-03-08 14:50:00,38.5,33.8,30.13,SSE,165,4.0,4.0,83,0.00,,,0.01,Wunderground v.1.15,2013-03-08 20:50:00,
2013-03-08 14:54:00,38.5,33.8,30.13,SE,140,4.0,7.0,83,0.00,,,0.01,Wunderground v.1.15,2013-03-08 20:54:00,
2013-03-08 14:56:00,38.5,33.8,30.12,East,91,5.0,7.0,83,0.00,,,0.01,Wunderground v.1.15,2013-03-08 20:56:00,
2013-03-08 15:00:00,38.5,34.1,30.13,SW,228,5.0,6.0,84,0.00,,,0.01,Wunderground v.1.15,2013-03-08 21:00:00,
2013-03-08 15:02:00,38.5,34.1,30.12,SSW,195,5.0,6.0,84,0.00,,,0.01,Wunderground v.1.15,2013-03-08 21:02:00,
2013-03-08 15:08:00,38.4,34.0,30.12,WSW,240,6.0,8.0,84,0.00,,,0.01,Wunderground v.1.15,2013-03-08 21:08:00,
2013-03-08 15:14:00,38.4,34.0,30.12,ESE,121,6.0,6.0,84,0.00,,,0.01,Wunderground v.1.15,2013-03-08 21:14:00,
2013-03-08 15:16:00,38.3,33.9,30.13,SSW,212,6.0,8.0,84,0.00,,,0.01,Wunderground v.1.15,2013-03-08 21:16:00,
2013-03-08 15:20:00,37.9,33.5,30.13,SW,234,6.0,6.0,84,0.00,,,0.01,Wunderground v.1.15,2013-03-08 21:20:00,
2013-03-08 15:22:00,37.7,33.6,30.12,ESE,113,5.0,6.0,85,0.00,,,0.01,Wunderground v.1.15,2013-03-08 21:22:00,
2013-03-08 15:28:00,37.4,33.6,30.12,ESE,116,5.0,6.0,86,0.00,,,0.01,Wunderground v.1.15,2013-03-08 21:28:00,
2013-03-08 15:30:00,37.4,33.6,30.12,West,260,5.0,5.0,86,0.00,,,0.01,Wunderground v.1.15,2013-03-08 21:30:00,
2013-03-08 15:34:00,37.4,33.6,30.12,SSW,210,5.0,6.0,86,0.00,,,0.01,Wunderground v.1.15,2013-03-08 21:34:00,
2013-03-08 15:36:00,37.3,33.5,30.12,SE,143,5.0,6.0,86,0.00,,,0.01,Wunderground v.1.15,2013-03-08 21:36:00,
2013-03-08 15:38:00,37.3,33.8,30.11,SE,131,5.0,6.0,87,0.00,,,0.01,Wunderground v.1.15,2013-03-08 21:38:00,
2013-03-08 15:42:00,37.1,33.6,30.11,SE,143,5.0,6.0,87,0.00,,,0.01,Wunderground v.1.15,2013-03-08 21:42:00,
2013-03-08 15:44:00,37.0,33.5,30.11,ESE,103,6.0,8.0,87,0.00,,,0.01,Wunderground v.1.15,2013-03-08 21:44:00,
2013-03-08 15:50:00,36.9,33.7,30.10,South,170,6.0,6.0,88,0.00,,,0.01,Wunderground v.1.15,2013-03-08 21:50:00,
2013-03-08 15:52:00,36.8,33.6,30.11,South,188,6.0,6.0,88,0.00,,,0.01,Wunderground v.1.15,2013-03-08 21:52:00,
2013-03-08 15:54:00,36.8,33.6,30.10,SSE,162,5.0,6.0,88,0.00,,,0.01,Wunderground v.1.15,2013-03-08 21:54:00,
2013-03-08 15:56:00,36.8,33.9,30.10,SSE,155,5.0,6.0,89,0.00,,,0.01,Wunderground v.1.15,2013-03-08 21:56:00,
2013-03-08 16:00:00,36.7,33.8,30.10,SSE,158,5.0,9.0,89,0.00,,,0.01,Wunderground v.1.15,2013-03-08 22:00:00,
2013-03-08 16:02:00,36.7,33.8,30.10,SSW,203,5.0,9.0,89,0.00,,,0.01,Wunderground v.1.15,2013-03-08 22:02:00,
2013-03-08 16:04:00,36.6,33.7,30.10,SSE,157,5.0,9.0,89,0.00,,,0.01,Wunderground v.1.15,2013-03-08 22:04:00,
2013-03-08 16:10:00,36.4,33.5,30.09,SSW,194,5.0,7.0,89,0.00,,,0.01,Wunderground v.1.15,2013-03-08 22:10:00,
2013-03-08 16:14:00,36.1,33.2,30.09,SW,217,5.0,7.0,89,0.00,,,0.01,Wunderground v.1.15,2013-03-08 22:14:00,
2013-03-08 16:18:00,35.9,33.3,30.08,SSE,168,5.0,9.0,90,0.00,,,0.01,Wunderground v.1.15,2013-03-08 22:18:00,
2013-03-08 16:20:00,35.8,33.2,30.08,SE,145,6.0,6.0,90,0.00,,,0.01,Wunderground v.1.15,2013-03-08 22:20:00,
2013-03-08 16:22:00,35.8,33.2,30.08,SE,142,6.0,6.0,90,0.00,,,0.01,Wunderground v.1.15,2013-03-08 22:22:00,
2013-03-08 16:26:00,35.7,33.3,30.08,SSW,197,6.0,8.0,91,0.00,,,0.01,Wunderground v.1.15,2013-03-08 22:26:00,
2013-03-08 16:28:00,35.6,33.2,30.08,South,180,6.0,8.0,91,0.00,,,0.01,Wunderground v.1.15,2013-03-08 22:28:00,
2013-03-08 16:30:00,35.6,33.2,30.08,South,172,6.0,6.0,91,0.00,,,0.01,Wunderground v.1.15,2013-03-08 22:30:00,
2013-03-08 16:34:00,35.5,33.1,30.07,South,179,6.0,8.0,91,0.00,,,0.01,Wunderground v.1.15,2013-03-08 22:34:00,
2013-03-08 16:36:00,35.5,33.1,30.08,South,169,6.0,8.0,91,0.00,,,0.01,Wunderground v.1.15,2013-03-08 22:36:00,
2013-03-08 16:38:00,35.5,33.1,30.07,SSE,148,6.0,8.0,91,0.00,,,0.01,Wunderground v.1.15,2013-03-08 22:38:00,
2013-03-08 16:40:00,35.4,33.0,30.07,WSW,249,6.0,8.0,91,0.00,,,0.01,Wunderground v.1.15,2013-03-08 22:40:00,
2013-03-08 16:41:00,35.4,33.0,30.07,SE,135,6.0,8.0,91,0.00,,,0.01,Wunderground v.1.15,2013-03-08 22:41:00,
2013-03-08 16:43:00,35.4,33.3,30.07,SSE,162,6.0,8.0,92,0.00,,,0.01,Wunderground v.1.15,2013-03-08 22:43:00,
2013-03-08 16:48:00,35.5,33.4,30.08,SSW,207,6.0,8.0,92,0.00,,,0.01,Wunderground v.1.15,2013-03-08 22:48:00,
2013-03-08 16:54:00,35.5,33.4,30.08,South,175,5.0,7.0,92,0.00,,,0.01,Wunderground v.1.15,2013-03-08 22:54:00,
2013-03-08 16:58:00,35.5,33.4,30.08,SSE,148,5.0,7.0,92,0.00,,,0.01,Wunderground v.1.15,2013-03-08 22:58:00,
2013-03-08 17:01:00,35.5,33.4,30.08,South,177,5.0,7.0,92,0.00,,,0.01,Wunderground v.1.15,2013-03-08 23:01:00,
2013-03-08 17:03:00,35.4,33.3,30.08,South,191,5.0,7.0,92,0.00,,,0.01,Wunderground v.1.15,2013-03-08 23:03:00,
2013-03-08 17:08:00,35.3,33.2,30.08,SSE,150,5.0,7.0,92,0.00,,,0.01,Wunderground v.1.15,2013-03-08 23:08:00,
2013-03-08 17:10:00,35.3,33.2,30.08,SSE,155,6.0,7.0,92,0.00,,,0.01,Wunderground v.1.15,2013-03-08 23:10:00,
2013-03-08 17:16:00,35.2,33.1,30.07,NNE,16,6.0,8.0,92,0.00,,,0.01,Wunderground v.1.15,2013-03-08 23:16:00,
2013-03-08 17:18:00,35.1,33.0,30.07,SSE,148,6.0,8.0,92,0.00,,,0.01,Wunderground v.1.15,2013-03-08 23:18:00,
2013-03-08 17:22:00,35.1,33.0,30.07,SSW,198,6.0,8.0,92,0.00,,,0.01,Wunderground v.1.15,2013-03-08 23:22:00,
2013-03-08 17:28:00,34.9,32.8,30.08,SE,124,6.0,8.0,92,0.00,,,0.01,Wunderground v.1.15,2013-03-08 23:28:00,
2013-03-08 17:32:00,34.8,32.7,30.08,ESE,119,6.0,8.0,92,0.00,,,0.01,Wunderground v.1.15,2013-03-08 23:32:00,
2013-03-08 17:34:00,34.7,32.6,30.07,South,176,6.0,8.0,92,0.00,,,0.01,Wunderground v.1.15,2013-03-08 23:34:00,
2013-03-08 17:38:00,34.7,32.6,30.08,SW,214,6.0,8.0,92,0.00,,,0.01,Wunderground v.1.15,2013-03-08 23:38:00,
2013-03-08 17:40:00,34.6,32.5,30.08,SSE,156,6.0,6.0,92,0.00,,,0.01,Wunderground v.1.15,2013-03-08 23:40:00,
2013-03-08 17:45:00,34.5,32.4,30.08,SSW,200,6.0,7.0,92,0.00,,,0.01,Wunderground v.1.15,2013-03-08 23:45:00,
2013-03-08 17:47:00,34.4,32.3,30.07,ESE,104,5.0,7.0,92,0.00,,,0.01,Wunderground v.1.15,2013-03-08 23:47:00,
2013-03-08 17:52:00,34.3,32.2,30.07,West,276,5.0,6.0,92,0.00,,,0.01,Wunderground v.1.15,2013-03-08 23:52:00,
2013-03-08 17:54:00,34.3,32.2,30.07,NNW,337,5.0,6.0,92,0.00,,,0.01,Wunderground v.1.15,2013-03-08 23:54:00,
2013-03-08 17:58:00,34.1,32.0,30.07,SSW,200,4.0,6.0,92,0.00,,,0.01,Wunderground v.1.15,2013-03-08 23:58:00,
2013-03-08 18:00:00,34.1,32.0,30.06,SSE,162,5.0,6.0,92,0.00,,,0.01,Wunderground v.1.15,2013-03-09 00:00:00,
2013-03-08 18:02:00,34.1,32.3,30.06,SSW,211,5.0,6.0,93,0.00,,,0.01,Wunderground v.1.15,2013-03-09 00:02:00,
2013-03-08 18:05:00,34.0,32.2,30.06,SSE,158,5.0,7.0,93,0.00,,,0.01,Wunderground v.1.15,2013-03-09 00:05:00,
2013-03-08 18:07:00,34.0,32.2,30.06,South,176,5.0,7.0,93,0.00,,,0.01,Wunderground v.1.15,2013-03-09 00:07:00,
2013-03-08 18:14:00,33.9,32.1,30.06,WSW,246,5.0,7.0,93,0.00,,,0.01,Wunderground v.1.15,2013-03-09 00:14:00,
2013-03-08 18:16:00,33.9,32.1,30.06,SSW,200,6.0,7.0,93,0.00,,,0.01,Wunderground v.1.15,2013-03-09 00:16:00,
2013-03-08 18:20:00,33.9,32.1,30.06,SSW,193,6.0,6.0,93,0.00,,,0.01,Wunderground v.1.15,2013-03-09 00:20:00,
2013-03-08 18:22:00,33.9,32.1,30.06,South,173,6.0,6.0,93,0.00,,,0.01,Wunderground v.1.15,2013-03-09 00:22:00,
2013-03-08 18:24:00,33.8,32.0,30.06,South,169,6.0,6.0,93,0.00,,,0.01,Wunderground v.1.15,2013-03-09 00:24:00,
2013-03-08 18:27:00,33.9,32.1,30.05,WSW,242,6.0,6.0,93,0.00,,,0.01,Wunderground v.1.15,2013-03-09 00:27:00,
2013-03-08 18:29:00,33.9,32.1,30.05,SW,231,6.0,8.0,93,0.00,,,0.01,Wunderground v.1.15,2013-03-09 00:29:00,
2013-03-08 18:34:00,33.8,32.0,30.05,WSW,239,6.0,8.0,93,0.00,,,0.01,Wunderground v.1.15,2013-03-09 00:34:00,
2013-03-08 18:36:00,33.8,32.0,30.05,SSE,155,6.0,8.0,93,0.00,,,0.01,Wunderground v.1.15,2013-03-09 00:36:00,
2013-03-08 18:40:00,33.8,32.0,30.05,SSE,155,6.0,7.0,93,0.00,,,0.01,Wunderground v.1.15,2013-03-09 00:40:00,
2013-03-08 18:46:00,33.9,32.1,30.05,SE,139,6.0,7.0,93,0.00,,,0.01,Wunderground v.1.15,2013-03-09 00:46:00,
2013-03-08 18:48:00,33.9,32.1,30.05,SSW,212,6.0,8.0,93,0.00,,,0.01,Wunderground v.1.15,2013-03-09 00:48:00,
2013-03-08 18:51:00,33.9,31.8,30.05,South,177,6.0,6.0,92,0.00,,,0.01,Wunderground v.1.15,2013-03-09 00:51:00,
2013-03-08 18:54:00,33.9,31.8,30.05,SSE,155,5.0,6.0,92,0.00,,,0.01,Wunderground v.1.15,2013-03-09 00:54:00,
2013-03-08 18:58:00,33.8,31.7,30.05,SSW,197,5.0,6.0,92,0.00,,,0.01,Wunderground v.1.15,2013-03-09 00:58:00,
2013-03-08 19:04:00,33.7,31.6,30.05,SSE,149,5.0,6.0,92,0.00,,,0.01,Wunderground v.1.15,2013-03-09 01:04:00,
2013-03-08 19:06:00,33.7,31.6,30.05,SSE,165,5.0,6.0,92,0.00,,,0.01,Wunderground v.1.15,2013-03-09 01:06:00,
2013-03-08 19:08:00,33.7,31.6,30.05,South,172,5.0,6.0,92,0.00,,,0.01,Wunderground v.1.15,2013-03-09 01:08:00,
2013-03-08 19:09:00,33.7,31.6,30.05,SE,139,5.0,6.0,92,0.00,,,0.01,Wunderground v.1.15,2013-03-09 01:09:00,
2013-03-08 19:11:00,33.7,31.6,30.05,South,179,5.0,6.0,92,0.00,,,0.01,Wunderground v.1.15,2013-03-09 01:11:00,
2013-03-08 19:16:00,33.8,31.7,30.05,SSE,148,6.0,7.0,92,0.00,,,0.01,Wunderground v.1.15,2013-03-09 01:16:00,
2013-03-08 19:18:00,33.7,31.6,30.05,SE,145,6.0,7.0,92,0.00,,,0.01,Wunderground v.1.15,2013-03-09 01:18:00,
2013-03-08 19:20:00,33.8,31.7,30.05,SSE,158,6.0,6.0,92,0.00,,,0.01,Wunderground v.1.15,2013-03-09 01:20:00,
2013-03-08 19:22:00,33.8,31.7,30.05,SSE,150,6.0,6.0,92,0.00,,,0.01,Wunderground v.1.15,2013-03-09 01:22:00,
2013-03-08 19:24:00,33.8,31.7,30.04,SE,138,6.0,6.0,92,0.00,,,0.01,Wunderground v.1.15,2013-03-09 01:24:00,
2013-03-08 19:26:00,33.8,31.7,30.04,SSE,150,6.0,6.0,92,0.00,,,0.01,Wunderground v.1.15,2013-03-09 01:26:00,
2013-03-08 19:32:00,33.8,31.7,30.04,SE,139,6.0,6.0,92,0.00,,,0.01,Wunderground v.1.15,2013-03-09 01:32:00,
2013-03-08 19:34:00,33.8,31.5,30.04,SE,139,6.0,6.0,91,0.00,,,0.01,Wunderground v.1.15,2013-03-09 01:34:00,
2013-03-08 19:35:00,33.7,31.4,30.04,SE,131,6.0,6.0,91,0.00,,,0.01,Wunderground v.1.15,2013-03-09 01:35:00,
2013-03-08 19:42:00,33.7,31.6,30.04,SE,131,6.0,9.0,92,0.00,,,0.01,Wunderground v.1.15,2013-03-09 01:42:00,
2013-03-08 19:44:00,33.7,31.6,30.04,SE,145,6.0,9.0,92,0.00,,,0.01,Wunderground v.1.15,2013-03-09 01:44:00,
2013-03-08 19:50:00,33.7,31.6,30.04,SSE,150,6.0,6.0,92,0.00,,,0.01,Wunderground v.1.15,2013-03-09 01:50:00,
2013-03-08 19:54:00,33.7,31.6,30.03,SSE,150,7.0,9.0,92,0.00,,,0.01,Wunderground v.1.15,2013-03-09 01:54:00,
2013-03-08 19:59:00,33.7,31.6,30.03,SE,131,7.0,7.0,92,0.00,,,0.01,Wunderground v.1.15,2013-03-09 01:59:00,
2013-03-08 20:02:00,33.6,31.5,30.03,SE,136,7.0,8.0,92,0.00,,,0.01,Wunderground v.1.15,2013-03-09 02:02:00,
2013-03-08 20:04:00,33.7,31.6,30.03,SE,138,7.0,8.0,92,0.00,,,0.01,Wunderground v.1.15,2013-03-09 02:04:00,
2013-03-08 20:10:00,33.6,31.5,30.03,SE,134,8.0,8.0,92,0.00,,,0.01,Wunderground v.1.15,2013-03-09 02:10:00,
2013-03-08 20:12:00,33.6,31.5,30.03,SSE,162,8.0,8.0,92,0.00,,,0.01,Wunderground v.1.15,2013-03-09 02:12:00,
2013-03-08 20:14:00,33.6,31.5,30.03,SE,145,8.0,8.0,92,0.00,,,0.01,Wunderground v.1.15,2013-03-09 02:14:00,
2013-03-08 20:16:00,33.6,31.5,30.03,SE,142,8.0,8.0,92,0.00,,,0.01,Wunderground v.1.15,2013-03-09 02:16:00,
2013-03-08 20:22:00,33.7,31.6,30.03,SE,132,9.0,9.0,92,0.00,,,0.01,Wunderground v.1.15,2013-03-09 02:22:00,
2013-03-08 20:24:00,33.7,31.6,30.03,ESE,109,8.0,9.0,92,0.00,,,0.01,Wunderground v.1.15,2013-03-09 02:24:00,
2013-03-08 20:28:00,33.8,31.7,30.03,SE,125,8.0,9.0,92,0.00,,,0.01,Wunderground v.1.15,2013-03-09 02:28:00,
2013-03-08 20:32:00,33.8,31.7,30.03,SE,129,8.0,8.0,92,0.00,,,0.01,Wunderground v.1.15,2013-03-09 02:32:00,
2013-03-08 20:34:00,33.8,31.7,30.03,SE,134,8.0,8.0,92,0.00,,,0.01,Wunderground v.1.15,2013-03-09 02:34:00,
2013-03-08 20:36:00,33.9,31.8,30.03,SSE,149,8.0,8.0,92,0.00,,,0.01,Wunderground v.1.15,2013-03-09 02:36:00,
2013-03-08 20:38:00,33.9,31.8,30.03,ESE,113,8.0,10.0,92,0.00,,,0.02,Wunderground v.1.15,2013-03-09 02:38:00,
2013-03-08 20:40:00,33.9,31.8,30.03,SE,136,8.0,9.0,92,0.00,,,0.02,Wunderground v.1.15,2013-03-09 02:40:00,
2013-03-08 20:42:00,33.9,31.8,30.03,SE,125,8.0,10.0,92,0.00,,,0.02,Wunderground v.1.15,2013-03-09 02:42:00,
2013-03-08 20:43:00,34.0,31.9,30.03,SE,128,9.0,10.0,92,0.00,,,0.02,Wunderground v.1.15,2013-03-09 02:43:00,
2013-03-08 20:50:00,34.0,31.9,30.02,SE,134,9.0,10.0,92,0.00,,,0.02,Wunderground v.1.15,2013-03-09 02:50:00,
2013-03-08 20:56:00,34.0,31.9,30.03,SE,134,8.0,10.0,92,0.00,,,0.02,Wunderground v.1.15,2013-03-09 02:56:00,
2013-03-08 20:58:00,34.0,31.9,30.03,SE,134,8.0,10.0,92,0.00,,,0.02,Wunderground v.1.15,2013-03-09 02:58:00,
2013-03-08 21:00:00,34.0,31.9,30.03,ESE,120,9.0,9.0,92,0.00,,,0.02,Wunderground v.1.15,2013-03-09 03:00:00,
2013-03-08 21:02:00,34.1,32.0,30.03,SE,128,9.0,10.0,92,0.00,,,0.02,Wunderground v.1.15,2013-03-09 03:02:00,
2013-03-08 21:06:00,34.0,31.9,30.02,SSE,158,9.0,10.0,92,0.00,,,0.02,Wunderground v.1.15,2013-03-09 03:06:00,
2013-03-08 21:08:00,34.1,31.7,30.02,SE,128,9.0,10.0,91,0.00,,,0.02,Wunderground v.1.15,2013-03-09 03:08:00,
2013-03-08 21:14:00,34.1,31.7,30.02,SE,135,9.0,9.0,91,0.00,,,0.02,Wunderground v.1.15,2013-03-09 03:14:00,
2013-03-08 21:16:00,34.2,31.8,30.02,ESE,111,9.0,10.0,91,0.00,,,0.02,Wunderground v.1.15,2013-03-09 03:16:00,
2013-03-08 21:22:00,34.1,31.7,30.02,SSE,150,9.0,10.0,91,0.00,,,0.02,Wunderground v.1.15,2013-03-09 03:22:00,
2013-03-08 21:26:00,34.1,31.7,30.01,SE,135,10.0,10.0,91,0.00,,,0.02,Wunderground v.1.15,2013-03-09 03:26:00,
2013-03-08 21:30:00,34.1,31.7,30.01,SSE,150,10.0,10.0,91,0.00,,,0.02,Wunderground v.1.15,2013-03-09 03:30:00,
2013-03-08 21:32:00,34.0,31.6,30.01,SE,132,10.0,10.0,91,0.00,,,0.02,Wunderground v.1.15,2013-03-09 03:32:00,
2013-03-08 21:34:00,34.0,31.6,30.01,SE,145,10.0,10.0,91,0.00,,,0.02,Wunderground v.1.15,2013-03-09 03:34:00,
2013-03-08 21:36:00,34.0,31.6,30.01,SE,136,10.0,11.0,91,0.00,,,0.02,Wunderground v.1.15,2013-03-09 03:36:00,
2013-03-08 21:42:00,34.0,31.6,30.01,SE,124,10.0,11.0,91,0.00,,,0.02,Wunderground v.1.15,2013-03-09 03:42:00,
2013-03-08 21:44:00,33.9,31.6,30.01,ESE,122,10.0,11.0,91,0.00,,,0.02,Wunderground v.1.15,2013-03-09 03:44:00,
2013-03-08 21:48:00,34.0,31.6,30.01,SE,142,9.0,11.0,91,0.00,,,0.02,Wunderground v.1.15,2013-03-09 03:48:00,
2013-03-08 21:52:00,33.9,31.8,30.01,SE,128,10.0,10.0,92,0.00,,,0.02,Wunderground v.1.15,2013-03-09 03:52:00,
2013-03-08 21:54:00,33.9,31.8,30.02,SE,138,10.0,10.0,92,0.00,,,0.02,Wunderground v.1.15,2013-03-09 03:54:00,
2013-03-08 22:00:00,33.7,31.6,30.02,SE,132,10.0,10.0,92,0.00,,,0.03,Wunderground v.1.15,2013-03-09 04:00:00,
2013-03-08 22:02:00,33.7,31.6,30.02,SE,136,9.0,10.0,92,0.08,,,0.04,Wunderground v.1.15,2013-03-09 04:02:00,
2013-03-08 22:04:00,33.6,31.8,30.02,SE,132,9.0,10.0,93,0.08,,,0.04,Wunderground v.1.15,2013-03-09 04:04:00,
2013-03-08 22:06:00,33.7,31.9,30.03,SE,128,9.0,10.0,93,0.08,,,0.04,Wunderground v.1.15,2013-03-09 04:06:00,
2013-03-08 22:08:00,33.6,31.8,30.03,SE,135,9.0,10.0,93,0.08,,,0.04,Wunderground v.1.15,2013-03-09 04:08:00,
2013-03-08 22:10:00,33.6,31.8,30.03,SE,124,9.0,9.0,93,0.57,,,0.06,Wunderground v.1.15,2013-03-09 04:10:00,
2013-03-08 22:12:00,33.5,31.7,30.04,South,174,9.0,9.0,93,0.66,,,0.09,Wunderground v.1.15,2013-03-09 04:12:00,
2013-03-08 22:14:00,33.5,31.7,30.04,SE,142,8.0,9.0,93,0.26,,,0.10,Wunderground v.1.15,2013-03-09 04:14:00,
2013-03-08 22:20:00,33.4,31.9,30.04,SE,143,7.0,7.0,94,0.09,,,0.10,Wunderground v.1.15,2013-03-09 04:20:00,
2013-03-08 22:22:00,33.3,31.8,30.04,SE,145,6.0,7.0,94,0.07,,,0.10,Wunderground v.1.15,2013-03-09 04:22:00,
2013-03-08 22:25:00,33.3,31.8,30.04,ESE,119,5.0,7.0,94,0.05,,,0.10,Wunderground v.1.15,2013-03-09 04:25:00,
2013-03-08 22:30:00,33.3,31.8,30.03,ESE,112,5.0,6.0,94,0.04,,,0.10,Wunderground v.1.15,2013-03-09 04:30:00,
2013-03-08 22:32:00,33.3,31.8,30.03,SE,132,5.0,6.0,94,0.00,,,0.10,Wunderground v.1.15,2013-03-09 04:32:00,
2013-03-08 22:36:00,33.3,31.8,30.03,SE,136,4.0,6.0,94,0.20,,,0.12,Wunderground v.1.15,2013-03-09 04:36:00,
2013-03-08 22:40:00,33.2,31.7,30.03,SE,135,5.0,6.0,94,0.14,,,0.12,Wunderground v.1.15,2013-03-09 04:40:00,
2013-03-08 22:44:00,33.2,31.9,30.03,ESE,117,6.0,6.0,95,0.14,,,0.13,Wunderground v.1.15,2013-03-09 04:44:00,
2013-03-08 22:48:00,33.1,31.8,30.03,ESE,120,6.0,7.0,95,0.21,,,0.15,Wunderground v.1.15,2013-03-09 04:48:00,
2013-03-08 22:50:00,33.1,31.8,30.02,SE,134,6.0,6.0,95,0.21,,,0.16,Wunderground v.1.15,2013-03-09 04:50:00,
2013-03-08 22:52:00,33.2,31.9,30.03,SE,135,6.0,6.0,95,0.15,,,0.16,Wunderground v.1.15,2013-03-09 04:52:00,
2013-03-08 22:54:00,33.2,32.2,30.02,SSE,150,6.0,6.0,96,0.40,,,0.18,Wunderground v.1.15,2013-03-09 04:54:00,
2013-03-08 22:56:00,33.2,32.2,30.02,SE,139,6.0,6.0,96,0.28,,,0.19,Wunderground v.1.15,2013-03-09 04:56:00,
2013-03-08 23:00:00,33.3,32.3,30.02,SE,141,5.0,5.0,96,0.45,,,0.21,Wunderground v.1.15,2013-03-09 05:00:00,
2013-03-08 23:06:00,33.4,32.4,30.01,SSE,150,5.0,6.0,96,0.16,,,0.22,Wunderground v.1.15,2013-03-09 05:06:00,
2013-03-08 23:08:00,33.4,32.4,30.00,SE,130,5.0,8.0,96,0.11,,,0.22,Wunderground v.1.15,2013-03-09 05:08:00,
2013-03-08 23:11:00,33.4,32.4,30.00,SE,131,6.0,7.0,96,0.31,,,0.24,Wunderground v.1.15,2013-03-09 05:11:00,
2013-03-08 23:16:00,33.4,32.4,30.00,SE,135,7.0,7.0,96,0.46,,,0.27,Wunderground v.1.15,2013-03-09 05:16:00,
2013-03-08 23:18:00,33.4,32.4,30.00,SE,137,7.0,7.0,96,0.21,,,0.27,Wunderground v.1.15,2013-03-09 05:18:00,
2013-03-08 23:20:00,33.4,32.4,30.00,SE,134,7.0,7.0,96,0.19,,,0.28,Wunderground v.1.15,2013-03-09 05:20:00,
2013-03-08 23:24:00,33.4,32.4,30.00,SE,132,6.0,7.0,96,0.11,,,0.28,Wunderground v.1.15,2013-03-09 05:24:00,
2013-03-08 23:28:00,33.5,32.7,29.99,SE,139,6.0,7.0,97,0.11,,,0.29,Wunderground v.1.15,2013-03-09 05:28:00,
2013-03-08 23:31:00,33.5,32.7,29.99,SE,141,6.0,8.0,97,0.11,,,0.30,Wunderground v.1.15,2013-03-09 05:31:00,
2013-03-08 23:33:00,33.5,32.7,29.99,ESE,118,6.0,8.0,97,0.11,,,0.30,Wunderground v.1.15,2013-03-09 05:33:00,
2013-03-08 23:38:00,33.5,32.7,29.99,SE,135,6.0,8.0,97,0.07,,,0.30,Wunderground v.1.15,2013-03-09 05:38:00,
2013-03-08 23:40:00,33.5,32.7,29.99,SE,138,6.0,8.0,97,0.06,,,0.30,Wunderground v.1.15,2013-03-09 05:40:00,
2013-03-08 23:44:00,33.5,32.7,29.98,SE,146,6.0,9.0,97,0.04,,,0.30,Wunderground v.1.15,2013-03-09 05:44:00,
2013-03-08 23:46:00,33.5,32.7,29.98,SE,128,6.0,9.0,97,0.04,,,0.30,Wunderground v.1.15,2013-03-09 05:46:00,
2013-03-08 23:48:00,33.5,32.7,29.98,SE,130,6.0,9.0,97,0.00,,,0.30,Wunderground v.1.15,2013-03-09 05:48:00,
2013-03-08 23:51:00,33.5,32.7,29.98,ESE,122,6.0,8.0,97,0.00,,,0.30,Wunderground v.1.15,2013-03-09 05:51:00,
2013-03-08 23:58:00,33.3,32.5,29.97,SE,141,7.0,8.0,97,0.00,,,0.31,Wunderground v.1.15,2013-03-09 05:58:00,